Back to catalog

THOR ABLESTAR DEB

AliveLEO
NORAD 354·DEBRIS·🇺🇸 United States

Launched Jun 29, 1961 from Cape Canaveral Space Force Station

Loading…

Next Passes (next 24 hours)

TLE

FreshSource: Space-Track

Epoch: Sep 7, 2026, 01:52 UTC

1 00354U 61015DU  26250.07779338  .00000203  00000-0  39024-3 0  9990
2 00354  67.0651 275.7099 0172243 252.6685 136.7369 13.49479320488929

Track THOR ABLESTAR DEB in real time with AllMySat

Download on the App Store